TimeEDT,TemperatureF,Dew PointF,Humidity,Sea Level PressureIn,VisibilityMPH,Wind Direction,Wind SpeedMPH,Gust SpeedMPH,PrecipitationIn,Events,Conditions,WindDirDegrees,DateUTC
12:53 AM,59.0,57.9,96,30.07,0.2,Calm,Calm,-,N/A,Fog,Fog,0,2012-10-05 04:53:00
1:53 AM,59.0,57.9,96,30.07,0.2,Calm,Calm,-,N/A,Fog,Fog,0,2012-10-05 05:53:00
2:53 AM,57.0,57.0,100,30.07,0.2,SSW,3.5,-,N/A,Fog,Fog,210,2012-10-05 06:53:00
3:53 AM,57.0,55.9,96,30.07,0.2,Calm,Calm,-,0.01,Fog,Fog,0,2012-10-05 07:53:00
4:53 AM,55.9,55.0,97,30.07,0.2,Calm,Calm,-,N/A,Fog,Fog,0,2012-10-05 08:53:00
5:53 AM,55.0,54.0,96,30.08,0.2,SW,4.6,-,N/A,Fog,Fog,220,2012-10-05 09:53:00
6:53 AM,53.1,53.1,100,30.08,0.2,Calm,Calm,-,N/A,Fog,Fog,0,2012-10-05 10:53:00
7:53 AM,54.0,53.1,97,30.09,0.2,Calm,Calm,-,N/A,Fog,Fog,0,2012-10-05 11:53:00
8:37 AM,55.4,55.4,100,30.09,1.5,Calm,Calm,-,N/A,,Overcast,0,2012-10-05 12:37:00
8:40 AM,55.4,55.4,100,30.09,3.0,Calm,Calm,-,N/A,,Mostly Cloudy,0,2012-10-05 12:40:00
8:53 AM,55.9,55.9,100,30.09,5.0,Calm,Calm,-,N/A,,Scattered Clouds,0,2012-10-05 12:53:00
9:53 AM,60.1,57.9,93,30.09,10.0,South,4.6,-,N/A,,Clear,180,2012-10-05 13:53:00
10:53 AM,66.0,59.0,78,30.07,10.0,South,4.6,-,N/A,,Clear,190,2012-10-05 14:53:00
11:53 AM,70.0,60.1,71,30.05,10.0,South,4.6,-,N/A,,Clear,190,2012-10-05 15:53:00
1:53 PM,75.0,60.1,60,29.99,10.0,Variable,3.5,-,N/A,,Clear,0,2012-10-05 17:53:00
2:53 PM,75.9,60.1,58,29.97,10.0,SSW,8.1,-,N/A,,Clear,200,2012-10-05 18:53:00
3:53 PM,75.9,59.0,56,29.96,10.0,Calm,Calm,-,N/A,,Clear,0,2012-10-05 19:53:00
4:53 PM,75.9,59.0,56,29.95,10.0,Variable,4.6,-,N/A,,Clear,0,2012-10-05 20:53:00
5:53 PM,73.9,60.1,62,29.95,10.0,Calm,Calm,-,N/A,,Clear,0,2012-10-05 21:53:00
6:53 PM,66.9,61.0,81,29.96,9.0,Calm,Calm,-,N/A,,Clear,0,2012-10-05 22:53:00
7:53 PM,63.0,61.0,93,29.96,6.0,Calm,Calm,-,N/A,,Clear,0,2012-10-05 23:53:00
8:53 PM,61.0,59.0,93,29.96,4.0,Calm,Calm,-,N/A,,Clear,0,2012-10-06 00:53:00
9:53 PM,60.1,57.9,93,29.95,3.0,Calm,Calm,-,N/A,,Clear,0,2012-10-06 01:53:00
10:53 PM,59.0,57.9,96,29.95,4.0,Calm,Calm,-,N/A,,Clear,0,2012-10-06 02:53:00
11:43 PM,57.2,55.4,94,29.94,1.8,Calm,Calm,-,N/A,,Clear,0,2012-10-06 03:43:00
11:53 PM,57.9,55.9,93,29.93,1.5,Calm,Calm,-,N/A,,Clear,0,2012-10-06 03:53:00